COSMOS 2251 DEB, 35026

Orbit data source: Space-Track

COSMOS 2251 DEB, 35026 is space debris in LEO originally from a launch on Wed, 16 Jun 1993 UTC launched from the Plesetsk Missile And Space Complex (PKMTR). The debris from Iridium 33, an American commercial communications satellite, has been tracked extensively since its accidental collision with the defunct Russian satellite Cosmos 2251 in 2009. This event, occurring at high speed in low Earth orbit (LEO), generated thousands of pieces of space debris, significantly increasing the risk of further collisions. The Iridium 33 debris cloud has impacted space traffic management and orbital debris mitigation strategies, making it a subject of ongoing study in space situational awareness.

Loading next visibility...
Identifier
35026, 1993-036AGP
Orbit
LEO
Country
Flag of CISCIS
Related business
Manufacturer
Unknown
Mission
Spacecraft
Bus & Motor
Unknown
Mass
Unknown
Launch date (UTC)
1993-06-16 (33 years ago)
Launch vehicle
Unknown
Launch site
Plesetsk Missile And Space Complex (PKMTR)
Object type
Payload
Rocket body
Debris
Shape & HBR
Unknown shape, 0.1 m
Radar Cross Section
Small (<0.1 m²)

Expand to show TLE details & history
Last TLE update: 2 days ago

TLE from 2 days ago
0 COSMOS 2251 DEB
1 35026U 93036AGP 26034.26001569  .00000219  00000-0  57177-4 0  9994
2 35026  74.0444 219.6521 0084341 319.4590 218.7973 14.53665782889063
Epoch: 2026-02-03T06:14Z
TLE epoch observation values (Epoch: 2026-02-03T06:14:25.355Z)
Latitude
2.15582°
Longitude
171.98957°
Altitude
762.9 km
Speed
7.448 km/s
True Right ascension
02h 36m 09s
True Declination
2° 08' 35"
Sunlit
Object was in daylight at epoch
Visualization orbit readout
Latitude
Unknown
Longitude
Unknown
Altitude
Unknown
Speed
Unknown
Apparent Right ascension
Unknown
Apparent Declination
Unknown
Sunlit
N/A
Visualization observer readout
Local Sidereal Time
05:56:22
Azimuth
Unknown
Elevation
Unknown
Doppler factor
Unknown
Orbital elements
Apogee altitude
771.097 km
Perigee altitude
651.511 km
Semi-major axis
7,089.441 km
Eccentricity
0.00843
Inclination
74.0444°
RAAN
219.6521°
Arg. of periapsis
319.459°
True anomaly
218.19669°
Mean anomaly
218.7973°
Eccentric anomaly
218.4965°
Mean motion
3.63601 °/min
Orbital period
99.01 mins
BSTAR
0.000057177
Loading maneuver chart data...
Computing Atmospheric mass density...

Documentation

Showing up to 5 results
|